When you browse on this site, cookies collect data to enhance your experience and personalize the content and advertising you see.
Visit our Privacy Policy to learn more. By continuing to use the site, you agree to this use of cookies and data.
  • în România
  • Lista ţărilor
  • Pe 7 zile
  • Temperatura apei
  • Meteo pe hartă
  • Widget-uri
  • user-avatar
    Intrare

    Meteo pe oră la Świebodzin

    Astăzi, 26 August, Luni

    Timp Temperatura Precipitaţii Vânt Presiune Umiditate
    00:00 +22°C° 0 mm 3 m/s 759 mmHg 70%
    01:00 +23°C° 0 mm 2 m/s 759 mmHg 71%
    02:00 +21°C° 0 mm 2 m/s 759 mmHg 73%
    03:00 +21°C° 0 mm 2 m/s 759 mmHg 75%
    04:00 +21°C° 0 mm 2 m/s 758 mmHg 76%
    05:00 +21°C° 0 mm 2 m/s 758 mmHg 76%
    06:00 +22°C° 0 mm 3 m/s 759 mmHg 75%
    07:00 +22°C° 0 mm 3 m/s 759 mmHg 74%
    08:00 +25°C° 0 mm 3 m/s 759 mmHg 70%
    09:00 +26°C° 0 mm 3 m/s 759 mmHg 66%
    10:00 +28°C° 0 mm 3 m/s 758 mmHg 62%
    11:00 +29°C° 0 mm 3 m/s 758 mmHg 58%
    12:00 +30°C° 0 mm 3 m/s 758 mmHg 54%
    13:00 +31°C° 0 mm 3 m/s 758 mmHg 50%
    14:00 +31°C° 0 mm 3 m/s 758 mmHg 49%
    15:00 +32°C° 0 mm 4 m/s 757 mmHg 48%
    16:00 +33°C° 0 mm 4 m/s 757 mmHg 48%
    17:00 +30°C° 0 mm 3 m/s 757 mmHg 53%
    18:00 +29°C° 0 mm 3 m/s 757 mmHg 58%
    19:00 +27°C° 0 mm 3 m/s 757 mmHg 64%
    20:00 +26°C° 0.1 mm 3 m/s 757 mmHg 66%
    21:00 +26°C° 0.1 mm 3 m/s 757 mmHg 68%
    22:00 +25°C° 0.1 mm 3 m/s 757 mmHg 70%
    23:00 +24°C° 0 mm 3 m/s 757 mmHg 73%

    Mâine, 27 August, Marţi

    Timp Temperatura Precipitaţii Vânt Presiune Umiditate
    00:00 +24°C° 0 mm 3 m/s 757 mmHg 75%
    01:00 +23°C° 0 mm 2 m/s 757 mmHg 78%
    02:00 +23°C° 0 mm 2 m/s 757 mmHg 79%
    03:00 +23°C° 0 mm 2 m/s 757 mmHg 80%
    04:00 +21°C° 0 mm 2 m/s 756 mmHg 81%
    05:00 +23°C° 0 mm 2 m/s 757 mmHg 79%
    06:00 +24°C° 0 mm 3 m/s 757 mmHg 76%
    07:00 +25°C° 0 mm 3 m/s 757 mmHg 74%
    08:00 +27°C° 0 mm 3 m/s 757 mmHg 67%
    09:00 +29°C° 0 mm 4 m/s 757 mmHg 61%
    10:00 +30°C° 0 mm 4 m/s 757 mmHg 55%
    11:00 +33°C° 0 mm 4 m/s 757 mmHg 49%
    12:00 +34°C° 0 mm 4 m/s 757 mmHg 44%
    13:00 +35°C° 0 mm 4 m/s 756 mmHg 39%
    14:00 +35°C° 0 mm 4 m/s 756 mmHg 38%
    15:00 +35°C° 0 mm 4 m/s 756 mmHg 38%
    16:00 +35°C° 0 mm 4 m/s 755 mmHg 37%
    17:00 +34°C° 0 mm 3 m/s 755 mmHg 42%
    18:00 +31°C° 0 mm 3 m/s 755 mmHg 48%
    19:00 +29°C° 0 mm 3 m/s 755 mmHg 53%
    20:00 +28°C° 0.6 mm 2 m/s 755 mmHg 58%
    21:00 +27°C° 0.6 mm 2 m/s 755 mmHg 63%
    22:00 +25°C° 0.6 mm 2 m/s 756 mmHg 69%
    23:00 +25°C° 0.5 mm 2 m/s 756 mmHg 70%

    Poimâine, 28 August, Miercuri

    Timp Temperatura Precipitaţii Vânt Presiune Umiditate
    00:00 +25°C° 0.5 mm 2 m/s 756 mmHg 72%
    01:00 +25°C° 0.5 mm 2 m/s 755 mmHg 74%
    02:00 +24°C° 0.2 mm 2 m/s 755 mmHg 76%
    03:00 +24°C° 0.2 mm 2 m/s 755 mmHg 78%
    04:00 +23°C° 0.2 mm 2 m/s 755 mmHg 80%
    05:00 +24°C° 0 mm 2 m/s 755 mmHg 79%
    06:00 +24°C° 0 mm 2 m/s 755 mmHg 77%
    07:00 +25°C° 0 mm 2 m/s 755 mmHg 75%
    08:00 +27°C° 0 mm 2 m/s 755 mmHg 68%
    09:00 +28°C° 0 mm 2 m/s 755 mmHg 61%
    10:00 +30°C° 0 mm 2 m/s 755 mmHg 54%
    11:00 +31°C° 0 mm 2 m/s 755 mmHg 49%
    12:00 +32°C° 0 mm 2 m/s 754 mmHg 45%
    13:00 +34°C° 0 mm 2 m/s 754 mmHg 41%
    14:00 +35°C° 0 mm 2 m/s 754 mmHg 40%
    15:00 +35°C° 0 mm 2 m/s 754 mmHg 39%
    16:00 +35°C° 0 mm 2 m/s 753 mmHg 38%
    17:00 +32°C° 0 mm 1 m/s 753 mmHg 43%
    18:00 +30°C° 0 mm 1 m/s 753 mmHg 48%
    19:00 +29°C° 0 mm 1 m/s 753 mmHg 53%
    20:00 +28°C° 0 mm 1 m/s 753 mmHg 57%
    21:00 +27°C° 0 mm 1 m/s 753 mmHg 60%
    22:00 +26°C° 0 mm 1 m/s 754 mmHg 63%
    23:00 +26°C° 0 mm 1 m/s 753 mmHg 65%

    29 August, Joi

    Timp Temperatura Precipitaţii Vânt Presiune Umiditate
    00:00 +25°C° 0 mm 1 m/s 753 mmHg 67%
    01:00 +23°C° 0 mm 0 m/s 753 mmHg 70%
    02:00 +24°C° 0 mm 1 m/s 753 mmHg 72%
    03:00 +24°C° 0 mm 1 m/s 753 mmHg 74%
    04:00 +23°C° 0 mm 1 m/s 753 mmHg 76%
    05:00 +24°C° 0 mm 1 m/s 753 mmHg 74%
    06:00 +25°C° 0 mm 1 m/s 753 mmHg 72%
    07:00 +25°C° 0 mm 1 m/s 753 mmHg 69%
    08:00 +27°C° 0 mm 1 m/s 753 mmHg 62%
    09:00 +29°C° 0 mm 2 m/s 753 mmHg 55%
    10:00 +30°C° 0 mm 2 m/s 753 mmHg 48%
    11:00 +31°C° 0 mm 2 m/s 753 mmHg 45%
    12:00 +32°C° 0 mm 2 m/s 753 mmHg 41%
    13:00 +34°C° 0 mm 3 m/s 753 mmHg 37%
    14:00 +34°C° 0 mm 2 m/s 753 mmHg 38%
    15:00 +34°C° 0 mm 2 m/s 753 mmHg 38%
    16:00 +34°C° 0 mm 2 m/s 753 mmHg 39%
    17:00 +31°C° 0 mm 2 m/s 753 mmHg 44%
    18:00 +30°C° 0 mm 2 m/s 753 mmHg 48%
    19:00 +28°C° 0 mm 2 m/s 753 mmHg 53%
    20:00 +27°C° 0.3 mm 2 m/s 754 mmHg 60%
    21:00 +26°C° 0.3 mm 3 m/s 754 mmHg 66%
    22:00 +25°C° 0.3 mm 4 m/s 755 mmHg 73%
    23:00 +23°C° 0.5 mm 4 m/s 755 mmHg 78%

    30 August, Vineri

    Timp Temperatura Precipitaţii Vânt Presiune Umiditate
    00:00 +22°C° 0.5 mm 4 m/s 755 mmHg 83%
    01:00 +21°C° 0.5 mm 4 m/s 756 mmHg 88%
    02:00 +21°C° 0.1 mm 3 m/s 756 mmHg 89%
    03:00 +20°C° 0.1 mm 3 m/s 756 mmHg 89%
    04:00 +20°C° 0.1 mm 3 m/s 757 mmHg 89%
    05:00 +19°C° 0 mm 3 m/s 757 mmHg 87%
    06:00 +19°C° 0 mm 3 m/s 757 mmHg 85%
    07:00 +19°C° 0 mm 4 m/s 758 mmHg 83%
    08:00 +21°C° 0 mm 4 m/s 758 mmHg 75%
    09:00 +22°C° 0 mm 4 m/s 759 mmHg 66%
    10:00 +23°C° 0 mm 4 m/s 759 mmHg 57%
    11:00 +25°C° 0 mm 4 m/s 759 mmHg 53%
    12:00 +26°C° 0 mm 4 m/s 759 mmHg 48%
    13:00 +26°C° 0 mm 4 m/s 759 mmHg 43%
    14:00 +26°C° 0 mm 3 m/s 759 mmHg 41%
    15:00 +26°C° 0 mm 3 m/s 759 mmHg 40%
    16:00 +26°C° 0 mm 3 m/s 759 mmHg 38%
    17:00 +24°C° 0 mm 2 m/s 759 mmHg 42%
    18:00 +23°C° 0 mm 2 m/s 758 mmHg 46%
    19:00 +21°C° 0 mm 1 m/s 758 mmHg 49%
    20:00 +19°C° 0 mm 2 m/s 759 mmHg 54%
    21:00 +18°C° 0 mm 2 m/s 759 mmHg 59%
    22:00 +17°C° 0 mm 2 m/s 759 mmHg 64%
    23:00 +17°C° 0 mm 2 m/s 759 mmHg 68%

    31 August, Sâmbătă

    Timp Temperatura Precipitaţii Vânt Presiune Umiditate
    00:00 +16°C° 0 mm 2 m/s 759 mmHg 73%
    01:00 +16°C° 0 mm 2 m/s 759 mmHg 77%
    02:00 +15°C° 0 mm 2 m/s 759 mmHg 79%
    03:00 +15°C° 0 mm 2 m/s 758 mmHg 81%
    04:00 +14°C° 0 mm 2 m/s 758 mmHg 82%
    05:00 +15°C° 0 mm 2 m/s 758 mmHg 79%
    06:00 +16°C° 0 mm 1 m/s 758 mmHg 76%
    07:00 +18°C° 0 mm 1 m/s 758 mmHg 72%
    08:00 +20°C° 0 mm 1 m/s 758 mmHg 63%
    09:00 +22°C° 0 mm 1 m/s 758 mmHg 54%
    10:00 +24°C° 0 mm 1 m/s 758 mmHg 45%
    11:00 +26°C° 0 mm 1 m/s 758 mmHg 42%
    12:00 +27°C° 0 mm 1 m/s 757 mmHg 38%
    13:00 +28°C° 0 mm 1 m/s 757 mmHg 35%
    14:00 +28°C° 0 mm 1 m/s 757 mmHg 36%
    15:00 +28°C° 0 mm 1 m/s 756 mmHg 36%
    16:00 +28°C° 0 mm 1 m/s 756 mmHg 37%
    17:00 +27°C° 0 mm 1 m/s 756 mmHg 42%
    18:00 +25°C° 0 mm 2 m/s 756 mmHg 47%
    19:00 +23°C° 0 mm 2 m/s 756 mmHg 52%
    20:00 +23°C° 0 mm 2 m/s 756 mmHg 53%
    21:00 +21°C° 0 mm 2 m/s 756 mmHg 54%
    22:00 +20°C° 0 mm 2 m/s 756 mmHg 56%
    23:00 +20°C° 0 mm 2 m/s 756 mmHg 56%
    Arată mai mult